Location: Albany
(35.0170°S, 117.8920°E)
Time: 03:58:19
(UTC+08:00)

Vanguard 1 - Pass Details

Date: 25 January 2021
Orbit: 649 x 3833 km, 34.2° (Epoch: 26 February)

Event Time Altitude Azimuth Distance (km) Brightness Sun altitude
Rises 01:58:50 0° 289° (WNW) 3,809 - -31.1°
Reaches altitude 10° 02:01:56 10° 291° (WNW) 2,545 - -30.9°
Maximum altitude 02:07:23 65° 12° (NNE) 767 - -30.3°
Exits shadow 02:10:01 24° 88° (E) 1,369 11.0 -30.1°
Drops below altitude 10° 02:11:46 10° 94° (E) 2,060 12.1 -29.9°
Sets 02:14:02 0° 97° (E) 3,012 13.1 -29.6°
